Regional Weather Roundup
Issued by NWS

Home | Current Version | Previous Version | Graphics & Text | Print | Product List | Glossary On
Versions: 1 2 3 4 5 6 7 8 9 10 11 12 13 14 15 16 17 18 19 20 21 22 23 24 25 26 27 28 29 30 31 32 33 34 35 36 37 38 39 40 41 42 43 44 45 46 47 48 49 50
000
ASUS45 KBOI 282310
RWRID
WEATHER ROUNDUP FOR IDAHO
NATIONAL WEATHER SERVICE BOISE ID
400 PM MST SAT FEB 28 2015

NOTE: "FAIR" INDICATES FEW OR NO CLOUDS BELOW 12000 FEET
WITH NO SIGNIFICANT WEATHER AND/OR OBSTRUCTIONS TO VISIBILITY

IDZ012-014-010000-
SOUTHWEST IDAHO


CITY           SKY/WX    TMP DP  RH WIND       PRES   REMARKS
BOISE          MOSUNNY   46  33  60 W10       29.85S
CALDWELL       MOSUNNY   48  30  49 W8        29.87S
MOUNTAIN HOME  PTSUNNY   46  30  53 NW15      29.84R
$$

IDZ016-017-010000-
SOUTHCENTRAL IDAHO


CITY           SKY/WX    TMP DP  RH WIND       PRES   REMARKS
BURLEY         MOSUNNY   47  15  27 NE9       29.76R
JEROME         PTSUNNY   47  13  25 E6        29.80R
TWIN FALLS     CLOUDY    44  19  36 E8        29.79R
$$

IDZ019>023-010000-
SOUTHEAST IDAHO


CITY           SKY/WX    TMP DP  RH WIND       PRES   REMARKS
IDAHO FALLS    MOSUNNY   43   6  21 N12       29.80R
POCATELLO      MOSUNNY   46  16  30 NE16      29.77R
REXBURG        SUNNY     41   7  24 NE13G20   29.80R
$$

IDZ006-010-011-018-031-032-010000-
CENTRAL IDAHO MOUNTAINS


CITY           SKY/WX    TMP DP  RH WIND       PRES   REMARKS
MCCALL         SUNNY     40  13  33 N14G23    29.82R WCI  32
HAILEY         CLOUDY    41  18  38 W8        29.79R
STANLEY          N/A     34  16  47 NW6       29.78R WCI  29
SALMON         MOSUNNY   37  12  35 S3        29.93R
CHALLIS        CLOUDY    35  14  42 NE14G23   29.84R WCI  26
$$

IDZ002-004-006-007-026-010000-
NORTHERN IDAHO


CITY           SKY/WX    TMP DP  RH WIND       PRES   REMARKS
LEWISTON       SUNNY     47  18  31 VRB5      30.07R
LOWELL           N/A     54  13  19 CALM      30.01R
COEUR D`ALENE  SUNNY     43   7  22 N16       30.09S
MULLAN PASS    SUNNY     23  -1  35 CALM      29.97R
$$


USA.gov is the U.S. government's official web portal to all federal, state and local government web resources and services.